Vorticity
6 5 4 7 8 8 11 13 11 8 6 8 13 22 14 3 -1 2 -9 4 5 -2 15 50 3 5 6 2 -3 12 4 5 4 -5 12 -1 -0 14 4 -5 7 14 12 11 7
2 4 5 3 3 8 8 5 4 7 9 9 8 9 12 10 9 23 -17 15 -10 2 0 31 3 -1 -5 7 1 -4 7 -1 13 -11 7 -2 4 4 12 3 8 -6 18 10 13
9 9 6 8 9 9 7 2 5 2 -2 -1 4 6 8 8 13 3 14 14 13 4 8 3 4 1 -2 -2 5 5 -3 -1 14 -6 4 3 2 6 4 7 5 19 18 4 6
7 5 5 6 7 12 9 2 3 3 8 12 5 8 4 10 15 13 8 2 0 -10 12 9 10 5 13 -6 -5 10 2 2 4 4 -1 1 5 -2 19 11 30 32 8 9 14
12 12 10 8 10 6 3 5 16 13 4 2 7 8 7 2 12 15 29 7 9 8 4 7 7 3 10 2 6 1 3 -2 7 2 -2 7 0 1 22 15 29 14 7 6 7
3 3 3 4 7 11 10 8 6 1 8 9 11 7 -1 8 12 6 10 25 10 11 6 6 5 2 10 9 -0 -3 0 5 7 6 7 1 -2 27 3 17 1 8 5 9 10
4 4 4 4 3 3 2 4 9 7 7 5 3 5 16 4 12 5 6 6 19 13 5 -4 -0 -1 1 2 3 1 2 5 -1 5 5 -4 14 -7 -5 13 5 7 8 8 9
7 7 7 7 5 4 4 3 3 2 6 8 4 7 5 7 11 18 7 6 6 12 15 30 10 -3 -9 -1 -2 0 1 4 5 5 1 5 7 -4 1 17 9 13 6 12 7
5 5 5 6 6 6 7 6 4 4 4 3 5 6 1 7 0 9 13 14 8 9 10 15 18 15 20 7 1 4 3 3 7 1 5 11 13 -2 -2 12 16 9 4 3 11
1 -3 2 4 7 8 15 10 8 4 5 4 4 4 3 6 4 5 3 6 10 11 6 6 9 7 9 11 10 7 5 6 3 6 10 4 13 11 4 9 6 2 11 10 8
4 3 1 3 8 11 10 10 14 9 16 4 7 2 5 4 6 1 2 4 10 10 7 9 7 8 7 10 12 12 10 13 7 14 -0 4 9 8 5 9 9 1 10 33 14
7 10 14 22 30 37 36 39 42 28 30 16 11 6 4 4 5 7 3 5 4 6 9 9 12 16 20 26 20 13 13 14 13 12 4 6 10 5 12 18 -1 0 25 9 3
14 24 36 36 29 24 23 30 34 37 44 26 37 11 4 10 2 4 6 4 8 8 -5 4 -1 7 11 21 21 17 21 18 12 17 24 29 -1 7 12 8 -1 6 23 2 6
35 33 29 23 25 19 20 15 17 23 37 46 51 39 31 7 6 -1 4 9 6 9 8 1 1 5 -1 2 9 10 15 15 9 15 8 21 10 11 8 6 -1 24 12 4 6
19 14 15 19 20 17 18 13 11 10 13 29 40 69 36 17 18 9 8 9 12 6 3 6 10 -0 -1 6 -0 4 4 28 15 15 26 -5 10 13 4 7 15 3 16 13 7
10 15 18 16 12 10 8 10 11 17 21 -0 19 29 52 38 33 3 9 11 4 9 6 2 5 7 6 8 2 3 15 13 31 20 15 -14 6 28 12 19 8 8 12 5 11
16 17 17 16 13 13 11 11 13 11 26 20 9 22 24 42 33 20 16 8 4 5 5 3 2 7 4 0 5 1 7 9 10 6 13 3 6 -55 7 15 5 6 11 6 3
9 12 18 20 24 20 14 12 12 26 21 16 17 12 -1 32 36 32 9 13 13 9 6 9 2 6 5 2 -0 3 5 29 -1 8 7 3 5 26 13 7 14 12 4 6 8
6 15 19 16 30 39 28 25 38 22 27 15 20 20 -3 24 33 29 24 21 8 16 8 5 6 6 8 10 2 2 4 12 6 0 11 2 2 13 7 7 18 14 5 7 10
15 18 28 31 26 16 22 29 17 -0 7 15 27 11 16 25 18 35 29 12 13 8 6 11 7 4 6 16 10 0 7 9 1 12 0 9 14 31 -1 17 14 2 5 9 2
19 21 32 28 -7 32 9 1 4 6 34 16 18 40 17 0 21 25 51 20 12 7 8 2 7 11 6 10 12 10 3 4 9 -1 8 6 13 26 13 4 10 4 2 1 9
19 10 30 29 2 -11 7 22 10 13 16 34 20 28 15 2 11 29 20 40 12 9 4 8 1 6 10 5 16 6 17 14 -0 9 8 23 24 10 8 6 5 10 3 -1 1
7 14 29 34 -20 3 -5 12 9 17 6 21 22 17 38 1 -8 9 9 14 31 11 8 5 8 2 4 5 14 6 12 10 5 10 19 9 20 9 9 6 8 9 4 1 8
-6 6 19 18 9 6 1 -0 22 11 8 10 20 19 48 13 -2 19 1 -7 50 20 8 1 4 6 7 2 13 7 10 7 1 12 16 17 -5 12 7 10 -1 8 1 2 10
7 4 6 28 17 10 3 10 14 20 20 12 9 18 34 16 39 -28 42 -23 12 47 19 5 3 7 8 6 9 7 5 12 8 22 15 4 7 17 10 0 3 12 2 5 5
12 13 15 10 11 29 15 17 7 -15 27 12 21 13 22 23 -7 47 24 -25 26 33 20 9 6 5 7 3 3 12 2 10 6 16 3 11 16 -10 6 2 11 12 3 3 4
6 11 16 16 21 18 14 5 11 10 -4 16 12 12 18 15 13 50 5 -17 26 21 21 12 5 10 3 1 3 14 2 9 7 8 1 8 17 12 12 -5 12 9 5 4 3
Height
5797 5797 5797 5797 5797 5798 5798 5800 5802 5804 5807 5810 5813 5816 5820 5823 5826 5827 5834 5839 5829 5832 5838 5845 5843 5845 5846 5848 5849 5849 5846 5852 5859 5859 5858 5856 5853 5855 5851 5848 5847 5843 5842 5839 5837
5792 5791 5791 5790 5790 5789 5790 5792 5793 5795 5796 5799 5801 5803 5806 5809 5813 5816 5832 5825 5820 5824 5827 5834 5835 5835 5837 5839 5839 5839 5839 5846 5855 5852 5850 5848 5845 5845 5844 5843 5843 5839 5836 5829 5828
5782 5781 5781 5781 5781 5781 5781 5781 5783 5784 5785 5788 5790 5793 5794 5796 5800 5808 5811 5813 5812 5814 5818 5824 5826 5828 5827 5831 5833 5834 5830 5841 5843 5845 5839 5840 5840 5837 5838 5835 5834 5828 5827 5823 5822
5774 5773 5772 5772 5772 5772 5772 5771 5771 5772 5774 5776 5778 5781 5783 5786 5787 5791 5798 5802 5806 5806 5808 5813 5817 5816 5819 5820 5828 5821 5824 5831 5834 5835 5831 5832 5830 5833 5831 5825 5823 5820 5818 5817 5817
5767 5766 5764 5763 5761 5760 5760 5759 5760 5762 5763 5764 5765 5767 5771 5772 5780 5781 5789 5792 5795 5797 5798 5801 5805 5807 5808 5814 5817 5810 5818 5821 5822 5824 5827 5826 5825 5824 5824 5822 5813 5812 5811 5812 5813
5759 5757 5755 5752 5751 5749 5749 5748 5748 5749 5751 5752 5753 5755 5757 5760 5771 5772 5774 5782 5782 5786 5790 5794 5796 5800 5800 5801 5805 5806 5806 5809 5811 5815 5819 5820 5816 5816 5823 5814 5809 5807 5806 5807 5807
5748 5745 5743 5741 5739 5737 5736 5734 5734 5735 5736 5739 5740 5742 5746 5755 5758 5763 5759 5767 5770 5775 5781 5786 5786 5787 5791 5792 5793 5796 5793 5797 5802 5811 5809 5812 5804 5813 5814 5807 5801 5802 5801 5801 5802
5733 5730 5727 5725 5723 5721 5720 5719 5719 5720 5722 5724 5726 5728 5733 5742 5746 5749 5754 5753 5757 5761 5769 5771 5771 5773 5775 5779 5782 5784 5784 5784 5799 5803 5803 5802 5793 5808 5807 5797 5796 5798 5797 5797 5795
5717 5713 5709 5706 5703 5700 5699 5698 5699 5702 5705 5707 5710 5713 5720 5726 5733 5735 5735 5742 5741 5747 5751 5754 5756 5762 5766 5767 5770 5771 5771 5778 5788 5797 5796 5795 5789 5801 5799 5793 5795 5794 5793 5791 5790
5702 5696 5690 5685 5680 5677 5674 5672 5673 5677 5682 5687 5691 5699 5705 5709 5717 5723 5724 5731 5732 5735 5737 5741 5744 5750 5755 5755 5753 5759 5767 5774 5777 5790 5788 5786 5783 5789 5794 5787 5790 5791 5789 5787 5786
5683 5676 5669 5661 5654 5650 5646 5643 5647 5649 5656 5660 5669 5678 5685 5691 5696 5708 5710 5716 5720 5722 5725 5733 5736 5737 5749 5748 5753 5757 5760 5762 5770 5777 5777 5777 5775 5780 5784 5781 5784 5784 5783 5782 5781
5662 5653 5643 5635 5626 5619 5613 5610 5612 5615 5624 5630 5642 5651 5663 5667 5679 5685 5693 5702 5707 5713 5719 5723 5724 5739 5739 5743 5745 5746 5749 5754 5763 5767 5767 5767 5763 5770 5775 5777 5778 5778 5778 5776 5776
5636 5625 5615 5607 5602 5597 5594 5590 5584 5584 5586 5607 5609 5624 5636 5646 5656 5668 5675 5687 5695 5701 5707 5712 5727 5730 5730 5732 5734 5737 5741 5749 5752 5756 5753 5754 5750 5760 5770 5769 5771 5772 5772 5771 5771
5613 5605 5598 5593 5588 5582 5581 5576 5571 5569 5565 5581 5586 5590 5603 5618 5633 5652 5660 5671 5681 5689 5697 5703 5712 5716 5719 5723 5729 5731 5738 5739 5740 5742 5743 5745 5738 5751 5761 5763 5766 5767 5767 5767 5766
5600 5592 5585 5578 5574 5571 5569 5565 5562 5561 5557 5567 5563 5569 5582 5596 5615 5631 5643 5651 5666 5677 5682 5692 5701 5707 5713 5723 5725 5727 5728 5728 5730 5732 5733 5739 5735 5747 5756 5759 5763 5762 5761 5762 5760
5589 5582 5575 5569 5564 5561 5557 5553 5552 5551 5552 5558 5551 5557 5563 5569 5589 5605 5621 5633 5650 5661 5674 5681 5692 5698 5705 5712 5716 5722 5721 5721 5722 5725 5720 5737 5739 5745 5753 5754 5754 5755 5756 5756 5756
5578 5571 5564 5558 5554 5549 5547 5544 5543 5538 5546 5544 5545 5551 5548 5555 5567 5585 5601 5617 5635 5647 5658 5665 5674 5686 5693 5698 5706 5710 5713 5712 5716 5713 5715 5739 5734 5742 5748 5748 5750 5751 5753 5752 5751
5569 5562 5554 5547 5541 5538 5536 5534 5531 5533 5535 5533 5542 5546 5545 5550 5555 5567 5587 5608 5623 5637 5648 5658 5667 5674 5683 5690 5704 5709 5711 5712 5714 5718 5722 5732 5729 5745 5745 5744 5746 5748 5748 5748 5749
5561 5552 5544 5537 5531 5527 5526 5524 5523 5526 5526 5527 5534 5536 5538 5544 5549 5560 5577 5591 5609 5625 5636 5645 5654 5668 5678 5688 5696 5703 5697 5713 5714 5715 5719 5718 5734 5740 5740 5742 5745 5746 5744 5745 5745
5553 5544 5536 5530 5527 5525 5522 5520 5520 5520 5522 5524 5528 5531 5538 5541 5547 5551 5561 5576 5590 5606 5620 5635 5644 5660 5671 5677 5686 5691 5698 5701 5702 5705 5706 5718 5729 5735 5736 5740 5741 5741 5742 5742 5742
5546 5538 5531 5527 5526 5524 5523 5522 5521 5520 5519 5520 5523 5526 5533 5536 5539 5545 5554 5565 5577 5591 5608 5623 5633 5651 5659 5664 5673 5682 5685 5688 5696 5696 5705 5715 5725 5731 5734 5738 5737 5738 5739 5739 5739
5543 5537 5529 5526 5526 5523 5522 5520 5519 5517 5515 5515 5518 5521 5525 5529 5531 5539 5548 5555 5565 5581 5595 5612 5624 5639 5652 5658 5669 5676 5681 5689 5693 5698 5706 5714 5722 5726 5729 5733 5734 5735 5736 5736 5736
5542 5535 5530 5526 5524 5522 5520 5519 5517 5516 5515 5515 5515 5517 5520 5524 5528 5535 5543 5549 5555 5571 5586 5599 5614 5629 5638 5647 5656 5664 5675 5680 5684 5692 5700 5711 5719 5721 5727 5730 5731 5733 5734 5733 5734
5542 5536 5531 5527 5525 5522 5520 5518 5515 5513 5514 5514 5514 5516 5518 5520 5523 5533 5539 5547 5550 5560 5575 5590 5605 5620 5636 5648 5658 5661 5666 5673 5677 5683 5698 5709 5715 5719 5723 5726 5730 5733 5731 5731 5732
5542 5537 5532 5527 5524 5521 5519 5517 5515 5512 5511 5511 5513 5513 5514 5516 5517 5525 5533 5544 5548 5554 5570 5586 5602 5617 5630 5637 5645 5654 5664 5669 5673 5690 5692 5707 5713 5717 5721 5723 5728 5730 5730 5730 5730
5542 5537 5531 5526 5522 5519 5518 5515 5513 5511 5510 5509 5511 5510 5511 5512 5513 5516 5526 5538 5540 5550 5563 5578 5594 5610 5623 5633 5640 5647 5654 5660 5671 5682 5691 5699 5707 5713 5717 5720 5725 5728 5728 5728 5728
5543 5538 5532 5528 5523 5521 5519 5516 5513 5511 5509 5507 5508 5508 5507 5510 5512 5511 5520 5529 5534 5545 5557 5570 5586 5603 5618 5627 5634 5639 5652 5659 5667 5677 5687 5695 5707 5709 5712 5716 5722 5726 5726 5726 5726